SCP
1 2 2 2 2 2 3 3 3 3 2 3 2 2 2 2 2 2 2 1 0 0 0 0 0 0 1 1 1 1 1 1 0 0 0 0 1 1
2 2 2 2 2 2 3 3 3 3 3 3 3 2 3 3 2 2 2 1 1 0 0 0 0 0 0 1 1 0 0 0 0 0 0 0 0 0
1 2 2 2 2 2 2 3 3 3 3 3 2 2 3 3 3 2 2 1 1 0 0 0 0 0 0 0 0 0 0 0 0 0 0 0 0 0
1 1 1 2 2 2 2 2 3 3 3 3 2 2 3 3 2 2 1 1 0 0 0 0 0 0 0 0 0 0 0 0 0 0 0 0 0 0
1 1 1 1 2 2 3 3 3 3 2 2 2 2 2 2 2 1 1 0 0 0 0 0 0 0 0 0 0 0 0 0 0 0 0 0 0 0
1 1 1 1 2 2 2 3 3 3 2 2 1 1 1 1 1 1 0 0 0 0 0 0 0 0 0 0 0 0 0 0 0 0 0 0 0 0
0 0 1 1 1 1 2 2 2 2 2 1 1 0 0 0 1 0 0 0 0 0 0 0 0 0 0 0 0 0 0 0 0 0 0 0 0 0
0 0 0 0 0 0 1 1 1 1 1 1 1 0 0 0 0 0 0 0 0 0 0 0 0 0 0 0 0 0 0 0 0 0 0 0 0 0
0 0 0 0 0 0 0 0 0 0 0 0 0 0 0 0 0 0 0 0 0 0 0 0 0 0 0 0 0 0 0 0 0 0 0 0 0 0
0 0 0 0 0 0 0 0 0 0 0 0 0 0 0 0 0 0 0 0 0 0 0 0 0 0 0 0 0 0 0 0 0 0 0 0 0 0
0 0 0 0 0 0 0 0 0 0 0 0 0 0 0 0 0 0 0 0 0 0 0 0 0 0 0 0 0 0 0 0 0 0 0 0 0 0
0 0 0 0 0 0 0 0 0 0 0 0 0 0 0 0 0 0 0 0 0 0 0 0 0 0 0 0 0 0 0 0 0 0 0 0 0 0
0 0 0 0 0 0 0 0 0 0 0 0 0 0 0 0 0 0 0 0 0 0 0 0 0 0 0 0 0 0 0 0 0 0 0 0 0 0
0 0 0 0 0 0 0 0 0 0 0 0 0 0 0 0 0 0 0 0 0 0 0 0 0 0 0 0 0 0 0 0 0 0 0 0 0 0
0 0 0 0 0 0 0 0 0 0 0 0 0 0 0 0 0 0 0 0 0 0 0 0 0 0 0 0 0 0 0 0 0 0 0 0 0 0
0 0 0 0 0 0 0 0 0 0 0 0 0 0 0 0 0 0 0 0 0 0 0 0 0 0 0 0 0 0 0 0 0 0 0 0 0 0
0 0 0 0 0 0 0 0 0 0 0 0 0 0 0 0 0 0 0 0 0 0 0 0 0 0 0 0 0 0 0 0 0 0 0 0 0 0
0 0 0 0 0 0 0 0 0 0 0 0 0 0 0 0 0 0 0 0 0 0 0 0 0 0 0 0 0 0 0 0 0 0 0 0 0 0
0 0 0 0 0 0 0 0 0 0 0 0 0 0 0 0 0 0 0 0 0 0 0 0 0 0 0 0 0 0 0 0 0 0 0 0 0 0
0 0 0 0 0 0 0 0 0 0 0 0 0 0 0 0 0 0 0 0 0 0 0 0 0 0 0 0 0 0 0 0 0 0 0 0 0 0
0 0 0 0 0 0 0 0 0 0 0 0 0 0 0 0 0 0 0 0 0 0 0 0 0 0 0 0 0 0 0 0 0 0 0 0 0 0
0 0 0 0 0 0 0 0 0 0 0 0 0 0 0 0 0 0 0 0 0 0 0 0 0 0 0 0 0 0 0 0 0 0 0 0 0 0
0 0 0 0 0 0 0 0 0 0 0 0 0 0 0 0 0 0 0 0 0 0 0 0 0 0 0 0 0 0 0 0 0 0 0 0 0 0
Wind_Speed
11 11 10 9 9 10 10 9 9 8 7 5 4 3 3 3 5 6 7 9 9 9 8 7 7 7 7 7 7 6 6 5 4 2 2 3 5 8
9 10 10 9 8 9 9 9 9 8 6 3 2 3 4 4 6 6 7 11 10 9 8 8 8 8 8 8 7 7 6 5 4 3 2 2 1 3
10 10 10 10 8 8 8 8 7 7 5 3 2 3 5 6 6 6 7 6 7 10 10 9 9 9 9 9 8 8 7 6 5 4 3 2 1 1
9 9 9 7 8 7 6 6 5 5 6 6 4 4 5 6 7 7 7 7 8 11 12 11 11 10 10 9 8 8 7 6 5 4 2 1 1 1
8 8 8 7 7 5 5 4 4 4 5 7 5 4 4 5 7 8 8 6 8 10 12 12 12 11 10 9 9 8 6 5 4 3 2 1 1 2
6 6 5 4 4 4 4 4 5 6 7 7 7 6 5 5 6 7 7 5 5 7 8 9 11 11 10 9 9 7 6 4 3 2 1 1 2 3
3 3 3 2 1 1 3 5 6 7 7 7 8 7 7 6 6 5 7 6 5 4 6 7 7 7 8 9 9 8 6 5 3 2 2 3 4 5
2 3 3 4 7 8 8 7 7 9 9 8 8 9 8 7 6 6 6 6 5 3 4 5 5 5 5 7 8 8 7 6 5 4 3 4 5 6
1 2 3 5 5 8 11 13 13 11 9 8 10 10 9 7 7 7 5 5 5 4 3 5 5 5 6 8 8 6 6 6 5 4 4 5 6 8
2 3 4 5 6 7 11 11 11 10 9 9 10 9 9 7 6 6 8 8 6 4 2 4 5 5 6 7 8 5 4 3 3 4 4 6 7 10
3 4 6 7 8 9 11 13 13 11 14 16 15 13 12 9 4 5 6 6 7 5 2 3 4 4 5 5 7 8 5 3 1 1 3 5 9 11
5 6 7 7 8 7 9 11 13 12 11 12 11 10 9 8 5 3 4 5 6 6 3 1 3 3 4 4 3 3 4 6 5 3 1 3 8 8
7 6 7 8 7 6 6 9 11 11 10 10 9 9 8 6 6 5 5 3 4 6 4 1 2 1 1 3 3 2 3 3 2 0 2 1 2 5
7 7 9 10 8 6 7 10 10 9 8 8 8 7 7 7 7 8 8 8 7 7 5 3 3 1 1 2 2 2 2 3 5 5 5 2 2 4
6 11 13 13 10 8 10 9 8 7 8 8 8 7 7 8 8 7 8 7 7 7 6 4 3 2 2 2 3 3 3 3 5 6 6 6 6 6
9 13 12 9 7 10 9 7 6 6 6 8 8 8 8 7 6 6 7 6 7 7 7 5 4 3 2 3 3 3 4 4 5 6 7 5 5 5
12 10 10 10 10 9 8 7 7 7 7 8 8 8 7 7 6 5 4 5 6 6 6 4 4 3 4 4 4 4 5 5 5 6 7 6 5 6
13 11 11 11 10 10 9 9 8 8 8 7 7 7 7 7 7 6 5 5 5 5 4 3 2 3 4 5 5 6 5 6 6 6 6 6 6 6
11 11 10 10 10 10 9 9 9 8 7 7 7 7 7 6 6 6 5 5 5 5 4 3 2 2 1 3 5 3 6 6 6 6 7 6 6 6
10 10 10 10 10 10 9 9 9 9 8 7 7 7 6 6 6 6 5 5 5 4 4 4 4 4 5 4 3 3 3 6 7 7 8 6 5 3
10 10 10 10 10 9 9 9 9 9 8 8 7 7 6 6 6 6 6 4 2 3 3 5 4 2 3 3 1 3 3 3 2 5 8 8 8 7
11 11 11 10 10 9 9 9 9 9 9 8 8 7 6 6 6 6 5 5 3 3 4 4 3 2 1 3 3 3 3 2 3 4 0 3 7 8
11 11 11 11 10 10 10 10 11 10 9 8 8 7 7 6 5 5 5 4 3 3 2 2 2 0 1 2 3 3 4 5 3 2 1 6 6 8
Wind_Direction
268 261 256 257 255 256 253 246 242 239 228 209 201 204 190 160 141 143 135 124 123 120 120 120 120 123 126 126 124 126 125 125 124 130 156 190 215 227
271 266 261 257 253 250 250 246 239 239 236 208 178 173 161 136 123 129 116 111 106 111 112 114 116 118 119 117 114 111 112 112 112 112 107 122 176 211
277 267 260 259 257 252 246 243 233 222 211 180 144 132 133 129 125 120 120 114 103 97 102 106 108 109 110 109 106 105 105 104 103 97 88 88 113 221
281 275 266 257 250 250 245 234 223 207 179 156 140 123 116 122 121 116 113 109 106 98 98 99 101 102 104 105 105 102 100 97 93 88 77 61 17 299
289 281 267 254 246 235 230 212 186 166 153 143 132 116 107 116 114 108 104 107 113 115 107 101 99 99 99 100 101 101 100 97 93 88 70 30 350 321
304 297 285 260 239 218 202 179 153 141 136 134 129 127 120 126 123 123 118 113 114 116 103 108 108 103 101 99 96 94 93 92 86 70 28 324 304 297
325 338 354 20 31 165 159 150 143 135 133 131 131 129 125 132 128 127 119 120 112 122 133 133 134 127 121 113 95 79 73 67 55 29 345 314 299 291
360 22 49 70 81 79 85 100 124 136 135 134 132 129 128 127 126 133 135 139 130 123 132 123 125 119 108 90 79 75 65 57 45 26 356 323 302 290
52 63 69 77 90 103 94 92 88 89 107 123 123 124 125 125 127 124 121 119 106 120 137 125 126 117 109 95 94 82 68 54 41 25 3 339 316 298
105 111 100 96 90 104 107 100 95 88 92 102 105 106 108 108 107 111 115 116 116 110 140 130 129 125 120 119 125 111 92 64 35 13 355 335 316 298
123 116 114 108 90 95 105 104 99 89 76 80 85 88 81 74 86 136 147 144 130 117 109 122 129 136 139 136 144 163 160 156 152 343 337 333 322 302
131 116 106 109 106 105 114 115 112 111 112 107 103 107 105 96 79 114 144 141 134 118 92 116 128 154 146 126 107 141 165 174 191 196 255 336 335 324
149 142 124 113 108 101 113 119 122 127 126 124 122 121 119 117 110 87 56 74 102 99 106 138 122 137 127 135 116 63 23 16 2 54 180 190 310 324
154 141 125 123 117 113 113 119 133 141 133 130 126 124 120 111 97 86 75 68 67 78 63 51 85 61 101 110 87 53 35 21 3 355 353 337 248 222
125 112 123 129 127 121 123 141 162 152 137 133 126 119 110 108 113 111 106 106 105 93 83 58 62 64 50 60 51 25 11 22 11 355 349 348 347 346
124 118 126 137 136 125 145 169 167 134 131 125 120 121 126 137 139 136 137 139 123 111 96 78 60 47 68 57 35 27 12 5 2 358 344 339 351 355
147 148 152 154 154 156 159 153 143 139 136 130 133 136 135 130 124 118 121 124 116 114 118 117 116 103 64 21 37 23 8 6 5 353 331 342 359 359
162 161 162 162 160 158 155 153 151 146 142 140 140 138 134 131 129 133 130 116 109 105 102 104 122 157 159 108 29 7 6 1 355 348 337 343 351 359
175 164 164 163 159 157 157 154 148 142 143 143 140 137 135 135 135 132 125 117 109 103 96 82 50 8 18 79 103 35 0 353 347 351 349 343 345 354
181 165 165 162 160 159 156 151 145 147 153 148 144 144 144 142 138 134 122 116 116 115 107 86 53 27 19 15 24 72 62 1 354 349 345 337 342 338
178 168 166 164 163 158 153 152 153 154 153 153 148 150 150 147 142 136 121 118 143 119 103 88 69 281 276 283 317 42 61 104 3 342 343 342 345 352
177 169 166 166 163 158 157 161 159 156 158 164 154 158 158 154 147 146 144 152 146 113 102 105 140 232 302 353 350 3 8 4 175 186 183 355 352 353
177 170 166 167 165 165 166 169 168 164 168 167 162 165 167 165 163 160 160 161 143 134 143 134 142 183 345 338 339 349 350 334 331 304 143 177 213 241